N42J KRIC-KORK

Flight info

Callsign N42J
Flight time N/A
Altitude 8000
Route KRIC/34 N0279F150 DCT CIBEN DCT STEVE DCT JHALL DCT LUFSY DCT KORF/23
Aircraft PC12/L-V/N

Departure

Time 2026-04-22 18:18
Airport Richmond International Airport (KRIC)

Arrival

Time N/A
Airport North Little Rock Municipal Airport (KORK)
Time Latitude Longitude Altitude Speed Heading
2026-04-22 18:11 37.49366 -77.30963 154 ft 0 kts 238°
2026-04-22 18:15 37.49364 -77.30993 154 ft 8 kts 309°
2026-04-22 18:15 37.49435 -77.30999 156 ft 15 kts 52°
2026-04-22 18:16 37.49507 -77.30856 157 ft 23 kts 54°
2026-04-22 18:16 37.49607 -77.30713 157 ft 18 kts 343°
2026-04-22 18:16 37.49652 -77.30748 157 ft 0 kts 327°
2026-04-22 18:17 37.49690 -77.30779 157 ft 31 kts 329°
2026-04-22 18:17 37.50102 -77.31113 159 ft 103 kts 327°
2026-04-22 18:18 37.50801 -77.31654 371 ft 126 kts 334°
2026-04-22 18:18 37.51625 -77.32186 685 ft 145 kts 330°
2026-04-22 18:18 37.52594 -77.32742 1053 ft 159 kts 332°
2026-04-22 18:18 37.53640 -77.33283 1528 ft 164 kts 336°
2026-04-22 18:19 37.54724 -77.33586 2188 ft 160 kts 347°
2026-04-22 18:19 37.55856 -77.33572 2664 ft 170 kts 360°
2026-04-22 18:19 37.57025 -77.33183 3142 ft 180 kts 18°
2026-04-22 18:19 37.58010 -77.32204 3687 ft 189 kts 54°
2026-04-22 18:20 37.58279 -77.30611 4271 ft 190 kts 100°
2026-04-22 18:20 37.57700 -77.29189 4850 ft 180 kts 140°
2026-04-22 18:20 37.56805 -77.28125 5371 ft 181 kts 144°
2026-04-22 18:20 37.55821 -77.27036 5706 ft 193 kts 145°
2026-04-22 18:21 37.54780 -77.25896 6051 ft 202 kts 144°
2026-04-22 18:21 37.53692 -77.24707 6392 ft 210 kts 144°
2026-04-22 18:21 37.52584 -77.23499 6729 ft 216 kts 144°
2026-04-22 18:21 37.51422 -77.22233 7075 ft 222 kts 144°
2026-04-22 18:22 37.50247 -77.20956 7420 ft 227 kts 144°
2026-04-22 18:22 37.49044 -77.19648 7767 ft 231 kts 144°
2026-04-22 18:22 37.47828 -77.18265 7989 ft 242 kts 138°
2026-04-22 18:22 37.46725 -77.16600 8031 ft 259 kts 129°
2026-04-22 18:23 37.45737 -77.14627 8022 ft 273 kts 121°
2026-04-22 18:23 37.44853 -77.12458 8025 ft 282 kts 117°
2026-04-22 18:23 37.44036 -77.10191 8030 ft 289 kts 115°
2026-04-22 18:24 37.42530 -77.05427 8015 ft 296 kts 112°
2026-04-22 18:24 37.41815 -77.02987 8015 ft 297 kts 111°
2026-04-22 18:24 37.40447 -76.98073 8020 ft 298 kts 110°
2026-04-22 18:25 37.39775 -76.95602 8019 ft 299 kts 110°
2026-04-22 18:25 37.39116 -76.93154 8026 ft 299 kts 110°
2026-04-22 18:25 37.38448 -76.90662 8025 ft 300 kts 110°
2026-04-22 18:26 37.37121 -76.85701 8031 ft 300 kts 110°
2026-04-22 18:26 37.36451 -76.83202 8024 ft 300 kts 110°
2026-04-22 18:26 37.35790 -76.80745 8026 ft 300 kts 110°
2026-04-22 18:26 37.35117 -76.78233 8029 ft 300 kts 110°
2026-04-22 18:27 37.34455 -76.75758 8034 ft 299 kts 110°
2026-04-22 18:27 37.33797 -76.73302 8029 ft 300 kts 110°
2026-04-22 18:27 37.33125 -76.70795 8036 ft 300 kts 110°
2026-04-22 18:27 37.32463 -76.68336 8028 ft 300 kts 110°
2026-04-22 18:28 37.31795 -76.65852 8031 ft 300 kts 110°
2026-04-22 18:28 37.31030 -76.63426 8047 ft 298 kts 121°
2026-04-22 18:28 37.29967 -76.61206 7983 ft 299 kts 124°
2026-04-22 18:28 37.28870 -76.58990 7752 ft 293 kts 125°
2026-04-22 18:29 37.27826 -76.56838 7537 ft 289 kts 123°
2026-04-22 18:29 37.26867 -76.54624 7317 ft 286 kts 121°
2026-04-22 18:29 37.25925 -76.52451 7110 ft 282 kts 123°
2026-04-22 18:29 37.24955 -76.50346 6904 ft 279 kts 123°
2026-04-22 18:30 37.23976 -76.48250 6697 ft 277 kts 124°
2026-04-22 18:30 37.22032 -76.44115 6258 ft 275 kts 124°
2026-04-22 18:30 37.21048 -76.42051 6000 ft 273 kts 124°
2026-04-22 18:31 37.20089 -76.40031 5747 ft 270 kts 124°
2026-04-22 18:31 37.19124 -76.38016 5488 ft 264 kts 124°
2026-04-22 18:31 37.18226 -76.36052 5229 ft 260 kts 122°
2026-04-22 18:31 37.17376 -76.34068 4971 ft 256 kts 122°
2026-04-22 18:32 37.16536 -76.32138 4712 ft 250 kts 123°
2026-04-22 18:32 37.15691 -76.30275 4444 ft 236 kts 124°
2026-04-22 18:32 37.14912 -76.28519 4174 ft 225 kts 123°
2026-04-22 18:32 37.14190 -76.26829 3908 ft 216 kts 123°
2026-04-22 18:33 37.13500 -76.25207 3645 ft 208 kts 123°
2026-04-22 18:33 37.12828 -76.23631 3383 ft 201 kts 123°
2026-04-22 18:33 37.12177 -76.22111 3125 ft 195 kts 123°
2026-04-22 18:33 37.11557 -76.20659 3060 ft 176 kts 123°
2026-04-22 18:34 37.11012 -76.19331 2963 ft 175 kts 124°
2026-04-22 18:34 37.10433 -76.17982 2726 ft 178 kts 124°
2026-04-22 18:34 37.09836 -76.16607 2480 ft 180 kts 124°
2026-04-22 18:34 37.09231 -76.15228 2232 ft 181 kts 124°
2026-04-22 18:35 37.08623 -76.13846 2072 ft 176 kts 124°
2026-04-22 18:35 37.08056 -76.12548 2044 ft 165 kts 124°
2026-04-22 18:35 37.07521 -76.11326 2043 ft 154 kts 124°
2026-04-22 18:35 37.07024 -76.10191 2046 ft 144 kts 125°
2026-04-22 18:36 37.06556 -76.09122 2042 ft 136 kts 124°
2026-04-22 18:36 37.06106 -76.08091 2084 ft 138 kts 125°
2026-04-22 18:36 37.05632 -76.07028 2055 ft 139 kts 125°
2026-04-22 18:36 37.05002 -76.06210 2049 ft 124 kts 166°
2026-04-22 18:37 37.04201 -76.06153 2051 ft 109 kts 212°
2026-04-22 18:37 37.03563 -76.06599 2052 ft 105 kts 223°
2026-04-22 18:37 37.03143 -76.06953 1974 ft 112 kts 224°
2026-04-22 18:37 37.02271 -76.07760 1790 ft 122 kts 226°
2026-04-22 18:38 37.01620 -76.08373 1671 ft 112 kts 227°
2026-04-22 18:38 37.01021 -76.08929 1655 ft 103 kts 226°
2026-04-22 18:38 37.00454 -76.09460 1652 ft 101 kts 227°
2026-04-22 18:39 36.99348 -76.10511 1645 ft 98 kts 227°
2026-04-22 18:39 36.98808 -76.11028 1643 ft 97 kts 227°
2026-04-22 18:39 36.98264 -76.11549 1642 ft 97 kts 226°
2026-04-22 18:39 36.97726 -76.12065 1642 ft 97 kts 227°
2026-04-22 18:40 36.97199 -76.12567 1571 ft 97 kts 228°
2026-04-22 18:40 36.96665 -76.13083 1454 ft 96 kts 228°
2026-04-22 18:40 36.96130 -76.13597 1334 ft 97 kts 226°
2026-04-22 18:40 36.95596 -76.14110 1212 ft 97 kts 227°
2026-04-22 18:41 36.95060 -76.14625 1089 ft 97 kts 228°
2026-04-22 18:41 36.94525 -76.15142 964 ft 97 kts 225°
2026-04-22 18:41 36.93984 -76.15658 850 ft 97 kts 226°
2026-04-22 18:41 36.93446 -76.16171 728 ft 97 kts 226°
2026-04-22 18:42 36.92917 -76.16692 613 ft 97 kts 225°
2026-04-22 18:42 36.92381 -76.17219 487 ft 97 kts 223°
2026-04-22 18:42 36.91834 -76.17744 367 ft 97 kts 226°
2026-04-22 18:42 36.91291 -76.18256 234 ft 99 kts 224°
2026-04-22 18:43 36.90759 -76.18752 99 ft 93 kts 223°
2026-04-22 18:43 36.90272 -76.19207 13 ft 75 kts 220°
2026-04-22 18:43 36.89964 -76.19501 19 ft 36 kts 214°
2026-04-22 18:43 36.89779 -76.19679 22 ft 30 kts 217°
2026-04-22 18:44 36.89617 -76.19835 23 ft 21 kts 210°
2026-04-22 18:44 36.89480 -76.19859 25 ft 22 kts 192°
2026-04-22 18:44 36.89376 -76.19899 23 ft 8 kts 146°
2026-04-22 18:44 36.89327 -76.19853 22 ft 15 kts 172°
2026-04-22 18:45 36.89233 -76.19855 22 ft 0 kts 185°